User: anonymous   Login
Location: Oronoko Observatory
(41.9167°N, 86.3833°W)
Time: 20:36:46
(UTC-05:00)
Language:

PAYLOAD A - Orbit

View from above orbital plane
View from above orbital plane
View from above satellite
View from above satellite

Ground track
Ground track

The orbit data is extracted from the following two-line orbital elements,

1 27840U 03031A   17326.57454707 -.00000012 +00000-0 +96981-5 0  9998
2 27840 098.2158 317.3420 0098313 002.3995 357.7645 14.38892929755995
Epoch (UTC): 22 November 2017 13:47:20
Eccentricity: 0.0098313
inclination: 98.2158°
perigee height: 692 km
apogee height: 832 km
right ascension of ascending node: 317.3420°
argument of perigee: 2.3995°
revolutions per day: 14.38892929
mean anomaly at epoch: 357.7645°
orbit number at epoch: 75599

The dashed part of the orbit path shows where the satellite is in the earth's shadow,  

DLR